Regional Weather Roundup
Issued by NWS Sioux Falls, SD

Home | Current Version | Previous Version | Text Only | Print | Product List | Glossary On
Versions: 1 2 3 4 5 6 7 8 9 10 11 12 13 14 15 16 17 18 19 20 21 22 23 24 25 26 27 28 29 30 31 32 33 34 35 36 37 38 39 40 41 42 43 44 45 46 47 48 49 50
000
ASUS43 KFSD 071310
RWRFSD

WEATHER ROUNDUP FOR SE SOUTH DAKOTA/SW MINNESOTA/NW IOWA
NATIONAL WEATHER SERVICE SIOUX FALLS SD
800 AM CDT TUE JUL 07 2015

NOTE: "FAIR" INDICATES FEW OR NO CLOUDS BELOW 12,000 FEET WITH NO
SIGNIFICANT WEATHER AND OR OBSTRUCTIONS TO VISIBILITY.


SDZ038>040-050-052>070-071400-
SOUTHEAST SOUTH DAKOTA

CITY           SKY/WX    TMP DP  RH WIND       PRES   REMARKS
BROOKINGS      SUNNY     54  45  71 NE7       30.21R
CHAMBERLAIN    SUNNY     56  53  92 E5        30.19S
HURON          SUNNY     56  52  86 E9        30.20R
MADISON        FAIR      52  52 100 NE7       30.21R
MITCHELL       SUNNY     57  54  89 E6        30.21R
SIOUX FALLS    MOSUNNY   55  49  80 NE7       30.20R
WINNER         FAIR      59  54  83 SE7       30.18S HAZE
YANKTON        MOSUNNY   57  48  72 NE5       30.19R
$$

MNZ071-072-080-081-089-090-097-098-071400-
SOUTHWEST MINNESOTA

CITY           SKY/WX    TMP DP  RH WIND       PRES   REMARKS
FAIRMONT       SUNNY     54  45  71 N10G16    30.16R
JACKSON        SUNNY     54  50  87 N13       30.18R
LUVERNE        SUNNY     55  48  76 N7        30.19R
MARSHALL       SUNNY     54  46  76 N8          N/A
MONTEVIDEO     SUNNY     57  52  82 NE8         N/A
PIPESTONE      SUNNY     54  48  82 NE7       30.19S
REDWOOD FALLS  SUNNY     56  49  77 N8        30.19R
TRACY          SUNNY     54  51  88 N7        30.20R
WINDOM         SUNNY     54  48  82 N14G20    30.18R
WORTHINGTON    SUNNY     54  46  76 N10       30.19R
$$

IAZ001>003-012>014-020>022-031-032-NEZ013-014-SDZ071-071400-
NORTHWEST IOWA

CITY           SKY/WX    TMP DP  RH WIND       PRES   REMARKS
CHEROKEE       SUNNY     55  50  84 N6        30.17R
DENISON        SUNNY     55  48  76 NE9       30.14R
ESTHERVILLE    SUNNY     54  49  83 N10       30.16R
LE MARS        SUNNY     55  52  88 N6        30.19S
ORANGE CITY    SUNNY     54  48  82 NE8       30.18R
SHELDON        SUNNY     54  54 100 N7        30.18R
SIOUX CITY     SUNNY     59  50  72 N7        30.18R
SPENCER        SUNNY     56  48  74 N8        30.17R
STORM LAKE     SUNNY     55  50  82 N14       30.17R
$$

ABBREVIATIONS USED IN REMARKS
   TC - TEMPERATURE IN CELSIUS
  WCI - WIND CHILL INDEX
   HX - HEAT INDEX
  VSB - VISIBILITY




USA.gov is the U.S. government's official web portal to all federal, state and local government web resources and services.